Regional Weather Roundup
Issued by NWS Jackson, KY

Home | Current Version | Previous Version | Text Only | Print | Product List | Glossary Off
Versions: 1 2 3 4 5 6 7 8 9 10 11 12 13 14 15 16 17 18 19 20 21 22 23 24 25 26 27 28 29 30 31 32 33 34 35 36 37 38 39 40 41 42 43 44 45 46 47 48 49 50

000
ASUS43 KJKL 010110
RWRJKL

EAST KENTUCKY HOURLY WEATHER ROUNDUP
NATIONAL WEATHER SERVICE JACKSON KY
800 PM EST SAT FEB 28 2015

NOTE: "FAIR" INDICATES FEW OR NO CLOUDS BELOW 12,000 FEET WITH
NO SIGNIFICANT WEATHER AND/OR OBSTRUCTIONS TO VISIBILITY.

* THESE REPORTS ARE NOT UNDER NWS QUALITY CONTROL AND MAY NOT
  REPORT WEATHER SUCH AS PRECIPITATION AND FOG.

KYZ079-080-083-085-087-088-110-112-115-119-120-010200
...EASTERN KENTUCKY...

CITY           SKY/WX    TMP DP  RH WIND       PRES   REMARKS
JACKSON        MOCLDY    36  17  46 NE3       30.48F
LONDON         MOCLDY    40  18  41 E3        30.46F
SOMERSET*      CLOUDY    37  21  52 CALM      30.48S
MONTICELLO*    CLOUDY    39  26  60 CALM      30.48S
MIDDLESBORO*   MOCLDY    34  29  80 CALM      30.49F
HAZARD APT*    CLEAR     37  21  52 CALM      30.49S
PIKEVILLE APT* MOCLDY    36  19  51 NE6       30.49F WCI  31
BIG SANDY*     MOCLDY    37  19  49 E5        30.50F WCI  33
MOREHEAD APT*  CLOUDY    36  12  38 E6        30.53S WCI  31
$$

KYZ035-036-041-042-044-050-067-078-099-010200
...CENTRAL KENTUCKY...

CITY           SKY/WX    TMP DP  RH WIND       PRES   REMARKS
MT STERLING*   CLOUDY    34  19  55 E6        30.50F WCI  29
FLEMING/MASON* MOCLDY    30  18  59 E5        30.52F WCI  25
DANVILLE*      CLOUDY    32  21  64 CALM      30.48F
RICHMOND*      CLOUDY    36  19  51 E5        30.47F WCI  32
LEXINGTON      CLOUDY    33  18  53 E9        30.48F WCI  25
FRANKFORT        N/A     31  16  54 E6        30.48F WCI  25
$$

KYZ091>093-OHZ055-061-077-WVZ005-015-034-035-042-010200
...SOUTHERN OHIO/WEST VIRGINIA...

CITY           SKY/WX    TMP DP  RH WIND       PRES   REMARKS
COVINGTON      CLOUDY    28  13  53 E8        30.51F WCI  20
COLUMBUS       CLOUDY    23   4  44 E5        30.56F WCI  17
DAYTON         CLOUDY    22   8  55 E6        30.54F WCI  14
WILMINGTON     CLOUDY    22  10  60 E7        30.52F WCI  13
HUNTINGTON       N/A     32  13  45 NE5       30.54F WCI  27
CHARLESTON       N/A     34  14  43 E5        30.53F WCI  30
PINEVILLE*     CLOUDY    40  26  59 MISG      30.55F
BECKLEY        CLOUDY    32  15  49 SE12      30.50S WCI  23
BLUEFIELD      MOCLDY    34  18  52 SE9       30.50S WCI  27
$$

VAZ002-007-008-TNZ017-027-036-066-071-010200
...SOUTHWEST VIRGINIA/EAST TENNESSEE...

CITY           SKY/WX    TMP DP  RH WIND       PRES   REMARKS
WISE*            N/A     36  21  55 CALM      30.47S
JONESVILLE*    MOCLDY    32  27  80 CALM      30.50F
ABINGDON*        N/A     38  24  55 E12       30.49S WCI  31
BRISTOL          N/A     37  25  61 NE3       30.50S
KNOXVILLE      MOCLDY    43  27  53 NE3       30.48S
OAK RIDGE      MOCLDY    43  25  49 CALM      30.50R
CROSSVILLE     CLOUDY    41  26  55 SE3       30.44S
NASHVILLE      MOCLDY    44  25  47 NE5       30.42F
$$

...KEY TO REMARKS...
VSB - VISIBILITY IN MILES
WCI - WIND CHILL INDEX
HX  - HEAT INDEX

$$



USA.gov is the U.S. government's official web portal to all federal, state and local government web resources and services.